Simultaneous Nadir Overpasses (SNOs) Predictions

Prediction of SNOs between AURA and NPP Satellite Orbit:

Table of predicted SNOs for the next 14.0 days since TLE Epoch: 8/28/2020
Index Date (AURA) Time (AURA) Lat,Lon (AURA) SZA (AURA ) Date (NPP) Time (NPP) Lat,Lon (NPP) SZA (NPP ) Distance(km) Time Diff (sec)
1 08/31/2020 11:25:10 79.36, -95.40 84.37 08/31/2020 11:24:47 79.37, -95.36 84.38 0.86 23
2 08/31/2020 12:14:32 -79.56, 73.61 95.92 08/31/2020 12:15:27 -79.56, 73.48 95.93 2.78 55
3 09/03/2020 02:52:19 -79.14,-148.60 94.41 09/03/2020 02:51:06 -79.13,-148.72 94.33 2.63 73
4 09/03/2020 03:41:36 79.48, 21.25 85.13 09/03/2020 03:41:40 79.47, 21.26 85.12 0.35 4
5 09/05/2020 19:08:45 -79.21, -32.25 93.58 09/05/2020 19:07:59 -79.20, -32.38 93.52 3.04 46
6 09/05/2020 19:58:02 79.55, 137.62 85.96 09/05/2020 19:58:33 79.55, 137.62 85.94 0.18 31
7 09/08/2020 11:25:11 -79.32, 84.35 92.79 09/08/2020 11:24:52 -79.31, 84.21 92.75 3.13 19
8 09/08/2020 12:14:29 79.61,-106.02 86.81 09/08/2020 12:15:27 79.61,-106.02 86.77 0.04 58
9 09/11/2020 02:52:15 79.22, 31.90 88.31 09/11/2020 02:51:05 79.22, 31.95 88.35 1.00 70
